Weather in Lopburi

Thailand     14°47′39″N   100°38′14″E
temp.,
°C
wind,
m/s
gust,
m/s
humid.,
%
clouds,
%
prec.,
mm/h
press.,
hPa
HPBL,
m
15 may, sat
sat1501:00+28s26717 0.1 1006264
04:00+27sse24775 0.0 1006133
07:00+28sse367711 0.0 1007343
10:00+34s44495 0.0 10081239
13:00+38s333882 0.0 10052589
16:00+35s474777 0.2 1003552
19:00+33sse485293 0.3 1004290
22:00+31s510615 0.0 1006430
16 may, sun
sun1601:00+29ssw247142 0.0 1006142
04:00+28sse387686 0.0 1005311
07:00+29s48765 0.0 1007462
10:00+34s56505 0.0 10081168
13:00+38s433989 0.0 10052653
16:00+34s364999 0.2 1003372
19:00+34se235159 0.2 100463
22:00+31s495739 0.2 1006302
17 may, mon
mon1701:00+28s287485 0.9 1005250
04:00+28sse2781100 0.3 1005229
07:00+28sse377838 0.3 1007339
10:00+35s44515 0.0 10081148
13:00+38s333782 0.0 10052756
16:00+37s343991 0.3 10031933
19:00+32se375643 0.6 1004230
22:00+30s2663100 0.2 1007265
18 may, tue
tue1801:00+29ssw277287 0.2 1005266
04:00+28sse2780100 0.0 1005255
07:00+29s4878100 0.6 1007431
10:00+34s565679 0.0 10081145
13:00+37s5541100 0.0 10052484
16:00+37sse5540100 0.0 10031593
19:00+32se5956100 0.0 1004381
22:00+29s51071100 0.1 1007468
19 may, wed
wed1901:00+28sse41079100 0.7 1006330
04:00+27sse4982100 0.0 1005346
07:00+28sse387892 0.0 1007369
10:00+34s4552100 0.0 10081314
13:00+38sse443952 0.0 10052459
16:00+35s464781 0.3 1003523
19:00+33sse6105095 0.3 1004480
22:00+31s5106061 0.1 1006585